Regional Weather Roundup
Issued by NWS

Home | Current Version | Previous Version | Graphics & Text | Print | Product List | Glossary On
Versions: 1 2 3 4 5 6 7 8 9 10 11 12 13 14 15 16 17 18 19 20 21 22 23 24 25 26 27 28
000
ASUS45 KBOU 232007
RWRCO

WEATHER ROUNDUP FOR COLORADO
NATIONAL WEATHER SERVICE DENVER/BOULDER CO
200 PM MDT MON OCT 23 2017

NOTE: "FAIR" INDICATES FEW OR NO CLOUDS BELOW 12000 FEET WITH NO
SIGNIFICANT WEATHER AND/OR OBSTRUCTIONS TO VISIBILITY.

COZ001>005-013-030-031-232100-
...NORTHWEST COLORADO...

CITY           SKY/WX    TMP DP  RH WIND       PRES   REMARKS
CRAIG          FAIR      61  22  22 W18       30.48
HAYDEN         FAIR      56  25  30 NW17G32   30.50F
MEEKER         FAIR      62  30  29 VRB7      30.48
RABBIT EARS PA FAIR      36  28  75 W17G38    30.55F
STEAMBOAT SPGS FAIR      53  26  35 W20G29    30.49S
WALDEN         NOT AVBL
$$

COZ006>008-011-232100-
...WEST CENTRAL VALLEYS...

CITY           SKY/WX    TMP DP  RH WIND       PRES   REMARKS
GRAND JUNCTION FAIR      66  31  27 VRB3      30.42
MONTROSE       FAIR      62  27  26 VRB3      30.47
EAGLE          FAIR      62  22  21 W15G25    30.45F
RIFLE          FAIR      64  29  26 W6        30.43
DELTA          FAIR      70  28  21 W14G21    30.43F
NUCLA          FAIR      68  23  18 W6        30.48F
$$

COZ017>023-064>068-232100-
...SOUTHWEST COLORADO...

CITY           SKY/WX    TMP DP  RH WIND       PRES   REMARKS
DURANGO        FAIR      65  27  23 VRB3      30.41
CORTEZ         FAIR      71  27  19 N9G21     30.42
PAGOSA SPRINGS FAIR      63  21  20 SW6       30.46S
TELLURIDE      FAIR      57  20  23 NW12G26   30.58
WOLF CREEK PAS FAIR      46  18  31 NW6       30.71S
$$

COZ009-010-012-014-032>034-037-058>063-232100-
...CENTRAL COLORADO...

CITY           SKY/WX    TMP DP  RH WIND       PRES   REMARKS
ASPEN          FAIR      58  28  32 N13       30.49
BUENA VISTA    FAIR      64  14  14 NW24G30   30.38F
COPPER MTN     FAIR      37  19  48 W28G38    30.60S
BERTHOUD PASS  FAIR      30  19  64 NW53G66   30.50R WCI  11
COTTONWOOD PAS FAIR      59   5  11 SW18G40   30.48S
GUNNISON       FAIR      60  27  28 SW16G26   30.45F
KREMMLING      FAIR      61  25  25 NW15G24   30.48S
LEADVILLE      FAIR      48  18  30 NW18G26   30.52
MONARCH PASS   FAIR      43  21  42 W26G36    30.70S
SALIDA         FAIR      68  20  16 NE7       30.42F
SUNLIGHT       FAIR      43  25  49 SW12G21   30.66F
WILKERSON PASS FAIR      46   9  21 NW10G18   30.55F
$$

COZ069>075-232100-
...SAN LUIS VALLEY/SANGRE DE CRISTO MOUNTAINS...

CITY           SKY/WX    TMP DP  RH WIND       PRES   REMARKS
ALAMOSA        FAIR      62  24  23 VRB3      30.41
DEL NORTE      FAIR      66  21  18 N16G24    30.42F
LA VETA PASS   FAIR      54  25  32 S7G23     30.63R
SAGUACHE       FAIR      63  23  22 NW20G33   30.41F
$$

COZ035-036-038>040-232100-
...NORTHERN COLORADO FRONT RANGE...

CITY           SKY/WX    TMP DP  RH WIND       PRES   REMARKS
DENVER INTL AP PTSUNNY   52  23  32 NE10G20   30.42
DMNS CITY PARK   N/A     50  29  44 NE7G17    30.44R
AURORA         PTSUNNY   51  27  38 E6        30.43F
FRONT RANGE AP PTSUNNY   54  23  30 N13G24    30.43
ERIE MUNI ARPT FAIR      51  31  46 S3        30.49S
BOULDER MUN AP CLOUDY    46  32  57 SE7       30.44S
CENTENNIAL     PTSUNNY   48  27  44 N12       30.43
BROOMFIELD     PTSUNNY   48  30  49 SW7       30.44
FORT COLLINS   FAIR      50  33  52 SW12      30.43S
LONGMONT       FAIR      52  33  48 SW7       30.45F
$$

COZ041-046-047-076>085-087-088-232100-
...PIKES PEAK/PALMER DIVIDE AND SOUTHERN FOOTHILLS...

CITY           SKY/WX    TMP DP  RH WIND       PRES   REMARKS
COLO. SPRINGS  PTSUNNY   50  31  48 SE7       30.43S
A. F. ACADEMY  CLOUDY    45  30  54 NW10      30.42F
SCHRIEVER AFB  PTSUNNY   48  28  46 NE10      30.43S
CHEYENNE MTN   CLOUDY    46  32  57 S10       30.38R
ELLICOTT         N/A    N/A N/A N/A N12G17    30.41F
FALCON         CLOUDY    47  29  50 N9        30.44S
FORT CARSON    CLOUDY    51  32  48 S5        30.41S
LIMON          FAIR      52  22  30 N20G32    30.41R
MONUMENT HILL  FAIR      43  28  56 NE5       30.45F
CANON CITY     FAIR      59  34  38 E10G18    30.39F
WALSENBURG     FAIR      57  36  44 E13G20    30.39F
TRINIDAD       FAIR      56  31  38 VRB6      30.39F
$$

COZ042>045-048>051-090-091-232100-
...NORTHEAST COLORADO...

CITY           SKY/WX    TMP DP  RH WIND       PRES   REMARKS
GREELEY ARPT   FAIR      56  27  32 S6        30.41F
AKRON          CLOUDY    53  20  27 N21G30    30.39
BURLINGTON     FAIR      56  22  26 N23G41    30.35
WRAY           NOT AVBL
YUMA           CLOUDY    54  21  28 N20G29    30.37F
STERLING       CLOUDY    55  21  26 N20       30.37F
HOLYOKE        FAIR      59  19  21 N29G41    30.34F
FORT MORGAN    FAIR      56  19  23 N18G25    30.41F
$$

COZ086-089-092>099-232100-
...SOUTHEAST COLORADO...

CITY           SKY/WX    TMP DP  RH WIND       PRES   REMARKS
PUEBLO         FAIR      57  30  35 E9        30.40
LA JUNTA       FAIR      62  27  26 N13       30.39
LAMAR          FAIR      63  23  21 N21       30.35
SPRINGFIELD      N/A     58  31  35 N17G30    30.35
$$




USA.gov is the U.S. government's official web portal to all federal, state and local government web resources and services.